Weather History for Los Alamos, NM

Change the Weather History Date:

Monday, September 9, 2013

  Actual Average Record
Temperature  
Mean Temperature 70 °F -  
Max Temperature 78 °F 74 °F 87 °F (1984)
Min Temperature 61 °F 50 °F 42 °F (1962)
Cooling Degree Days 4    
Growing Degree Days 20 (Base 50)    
Moisture  
Dew Point 46 °F    
Average Humidity 45    
Maximum Humidity 63    
Minimum Humidity 26    
Precipitation  
Precipitation 0.02 in - - ()
Sea Level Pressure  
Sea Level Pressure 30.17 in    
Wind  
Wind Speed 7 mph (South)    
Max Wind Speed 18 mph    
Max Gust Speed 23 mph    
Visibility 10 miles    
Events      
Averages and records for this station are not official NWS values.
T = Trace of Precipitation, MM = Missing Value Source: NWS Daily Summary

Daily Weather History Graph

Daily Weather History Graph

Search for Another Location

Airport:

Trip Planner

Search our weather history database for the weather conditions in past years. The results will help you decide how hot, cold, wet, or windy it might be!

Date:

Astronomy

Sep. 09, 2013 Rise Set
Actual Time 6:43 AM MDT 7:20 PM MDT
Civil Twilight 6:17 AM MDT 7:46 PM MDT
Nautical Twilight 5:47 AM MDT 8:16 PM MDT
Astronomical Twilight 5:15 AM MDT 8:47 PM MDT
Moon 10:57 AM MDT (9/9) 9:49 PM MDT (9/9)
Length of Visible Light 13h 28m
Length of Day
12h 37m
Waxing Crescent, 19% of the Moon is Illuminated
Sep 9
Waxing Crescent
Sep 12
First Quarter
Sep 19
Full
Sep 26
Last Quarter
Oct 4
New

Hourly Weather History & Observations

Time (MDT) Temp. Dew Point Humidity Pressure Visibility Wind Dir Wind Speed Gust Speed Precip Events Conditions
12:15 AM 64.6 °F 49.6 °F 58% 30.22 in 10.0 mi South 8.1 mph - N/A   Clear
12:35 AM 63.9 °F 49.5 °F 59% 30.22 in 10.0 mi South 8.1 mph - N/A   Clear
12:55 AM 63.0 °F 49.8 °F 62% 30.21 in 10.0 mi South 6.9 mph - N/A   Clear
1:15 AM 62.8 °F 50.0 °F 63% 30.21 in 10.0 mi SSW 5.8 mph - N/A   Clear
1:35 AM 63.1 °F 50.2 °F 63% 30.21 in 10.0 mi SSW 5.8 mph - N/A   Clear
1:55 AM 63.1 °F 50.0 °F 62% 30.21 in 10.0 mi South 3.5 mph - N/A   Clear
2:15 AM 63.1 °F 49.5 °F 61% 30.21 in 10.0 mi SSW 3.5 mph - N/A   Clear
2:35 AM 63.5 °F 49.1 °F 59% 30.21 in 10.0 mi South 3.5 mph - N/A   Clear
2:55 AM 63.0 °F 49.1 °F 61% 30.21 in 10.0 mi SSE 5.8 mph - N/A   Clear
3:15 AM 62.6 °F 49.1 °F 61% 30.19 in 10.0 mi SSE 3.5 mph - N/A   Clear
3:35 AM 62.4 °F 49.1 °F 62% 30.19 in 10.0 mi Calm Calm - N/A   Clear
3:55 AM 62.4 °F 49.1 °F 62% 30.19 in 10.0 mi West 3.5 mph - N/A   Clear
4:15 AM 62.2 °F 48.7 °F 61% 30.19 in 10.0 mi Calm Calm - N/A   Clear
4:35 AM 63.0 °F 48.6 °F 59% 30.19 in 10.0 mi Calm Calm - N/A   Clear
4:55 AM 63.5 °F 48.4 °F 58% 30.19 in 10.0 mi Calm Calm - N/A   Clear
5:15 AM 62.4 °F 48.7 °F 61% 30.19 in 10.0 mi Calm Calm - N/A   Clear
5:35 AM 62.8 °F 48.4 °F 59% 30.18 in 10.0 mi Calm Calm - N/A   Clear
5:55 AM 62.4 °F 48.2 °F 60% 30.18 in 10.0 mi SSW 3.5 mph - N/A   Clear
6:15 AM 61.7 °F 48.4 °F 62% 30.19 in 10.0 mi Calm Calm - N/A   Clear
6:35 AM 62.8 °F 48.2 °F 59% 30.19 in 10.0 mi Calm Calm - N/A   Clear
6:55 AM 62.6 °F 47.8 °F 58% 30.19 in 10.0 mi Calm Calm - N/A   Clear
7:15 AM 62.2 °F 48.2 °F 60% 30.19 in 10.0 mi Calm Calm - N/A   Clear
7:35 AM 62.8 °F 49.5 °F 62% 30.20 in 10.0 mi Calm Calm - N/A   Clear
7:55 AM 63.5 °F 48.6 °F 58% 30.20 in 10.0 mi Calm Calm - N/A   Clear
8:15 AM 64.0 °F 48.9 °F 58% 30.19 in 10.0 mi Calm Calm - N/A   Clear
8:35 AM 64.4 °F 49.3 °F 58% 30.20 in 10.0 mi SSE 3.5 mph - N/A   Clear
8:55 AM 64.9 °F 49.3 °F 57% 30.21 in 10.0 mi SE 3.5 mph - N/A   Clear
9:15 AM 65.7 °F 48.9 °F 55% 30.21 in 10.0 mi SE 6.9 mph - N/A   Clear
9:35 AM 66.4 °F 48.7 °F 53% 30.21 in 10.0 mi Calm Calm - N/A   Clear
9:55 AM 68.4 °F 49.5 °F 51% 30.21 in 10.0 mi ESE 4.6 mph - N/A   Clear
10:15 AM 68.5 °F 48.2 °F 48% 30.21 in 10.0 mi SE 5.8 mph - N/A   Clear
10:35 AM 69.3 °F 48.0 °F 47% 30.21 in 10.0 mi SSE 8.1 mph - N/A   Clear
10:55 AM 70.0 °F 48.4 °F 46% 30.21 in 10.0 mi SSE 4.6 mph - N/A   Clear
11:15 AM 70.5 °F 48.0 °F 45% 30.21 in 10.0 mi SSW 8.1 mph - N/A   Clear
11:35 AM 72.0 °F 47.7 °F 42% 30.20 in 10.0 mi SSW 8.1 mph - N/A   Clear
11:55 AM 72.5 °F 47.3 °F 41% 30.19 in 10.0 mi SSE 5.8 mph - N/A   Clear
12:15 PM 73.0 °F 46.2 °F 38% 30.19 in 10.0 mi South 10.4 mph - N/A   Scattered Clouds
12:35 PM 74.5 °F 44.2 °F 34% 30.18 in 10.0 mi South 5.8 mph - N/A   Scattered Clouds
12:55 PM 74.1 °F 42.4 °F 32% 30.17 in 10.0 mi South 11.5 mph 17.3 mph N/A   Scattered Clouds
1:15 PM 75.6 °F 41.2 °F 29% 30.16 in 10.0 mi South 11.5 mph 17.3 mph N/A   Clear
1:35 PM 75.9 °F 41.7 °F 29% 30.15 in 10.0 mi South 11.5 mph - N/A   Clear
1:55 PM 77.0 °F 43.2 °F 30% 30.15 in 10.0 mi South 15.0 mph 19.6 mph N/A   Clear
2:15 PM 76.8 °F 44.1 °F 31% 30.14 in 10.0 mi SE 10.4 mph 19.6 mph N/A   Scattered Clouds
2:35 PM 77.0 °F 44.4 °F 31% 30.13 in 10.0 mi SSE 13.8 mph 19.6 mph N/A   Scattered Clouds
2:55 PM 77.2 °F 44.1 °F 31% 30.12 in 10.0 mi South 15.0 mph 21.9 mph N/A   Scattered Clouds
3:15 PM 77.0 °F 43.5 °F 30% 30.12 in 10.0 mi SSE 10.4 mph 21.9 mph N/A   Scattered Clouds
3:35 PM 77.4 °F 41.2 °F 27% 30.10 in 10.0 mi South 12.7 mph 20.7 mph N/A   Clear
3:55 PM 77.9 °F 41.5 °F 27% 30.09 in 10.0 mi South 18.4 mph 21.9 mph N/A   Clear
4:15 PM 78.3 °F 41.9 °F 27% 30.09 in 10.0 mi South 8.1 mph 20.7 mph N/A   Clear
4:35 PM 78.3 °F 42.3 °F 28% 30.09 in 10.0 mi South 10.4 mph 20.7 mph N/A   Clear
4:55 PM 77.5 °F 42.6 °F 29% 30.08 in 10.0 mi South 8.1 mph 16.1 mph N/A   Clear
5:15 PM 77.7 °F 42.3 °F 28% 30.08 in 10.0 mi South 15.0 mph - N/A   Clear
5:35 PM 77.7 °F 42.1 °F 28% 30.08 in 10.0 mi South 15.0 mph - N/A   Scattered Clouds
5:55 PM 77.5 °F 39.9 °F 26% 30.08 in 10.0 mi South 16.1 mph 23.0 mph N/A   Mostly Cloudy
6:15 PM 77.2 °F 39.4 °F 26% 30.08 in 10.0 mi South 16.1 mph 23.0 mph N/A   Mostly Cloudy
6:35 PM 76.3 °F 39.2 °F 26% 30.09 in 10.0 mi SSW 11.5 mph 23.0 mph N/A   Mostly Cloudy
6:55 PM 75.2 °F 39.6 °F 28% 30.09 in 10.0 mi SSW 15.0 mph 18.4 mph N/A   Scattered Clouds
7:15 PM 74.5 °F 40.5 °F 29% 30.10 in 10.0 mi South 9.2 mph - N/A   Clear
7:35 PM 74.3 °F 40.3 °F 29% 30.11 in 10.0 mi South 11.5 mph 16.1 mph N/A   Clear
7:55 PM 73.6 °F 39.4 °F 29% 30.12 in 10.0 mi SSE 8.1 mph - N/A   Clear
8:15 PM 73.6 °F 37.8 °F 27% 30.12 in 10.0 mi SSE 8.1 mph 19.6 mph N/A   Scattered Clouds
8:35 PM 72.9 °F 37.9 °F 28% 30.13 in 10.0 mi SE 11.5 mph 18.4 mph N/A   Mostly Cloudy
8:55 PM 71.8 °F 39.2 °F 31% 30.15 in 10.0 mi SSE 11.5 mph 20.7 mph N/A   Scattered Clouds
9:15 PM 70.7 °F 39.6 °F 32% 30.16 in 10.0 mi SSE 12.7 mph 19.6 mph N/A   Clear
9:35 PM 70.0 °F 40.1 °F 34% 30.17 in 10.0 mi SSE 10.4 mph 19.6 mph N/A   Clear
9:55 PM 69.1 °F 42.4 °F 38% 30.18 in 10.0 mi South 16.1 mph 20.7 mph N/A   Clear
10:15 PM 68.2 °F 44.8 °F 43% 30.18 in 10.0 mi SSE 13.8 mph 23.0 mph N/A   Clear
10:35 PM 67.3 °F 46.4 °F 47% 30.19 in 10.0 mi South 15.0 mph 20.7 mph N/A   Clear
10:55 PM 66.4 °F 47.7 °F 51% 30.19 in 10.0 mi SSE 11.5 mph 19.6 mph N/A   Clear
11:15 PM 66.0 °F 49.1 °F 54% 30.19 in 10.0 mi SSE 11.5 mph 17.3 mph N/A   Clear
11:35 PM 65.7 °F 49.6 °F 56% 30.19 in 10.0 mi SSE 10.4 mph 18.4 mph N/A   Scattered Clouds
11:55 PM 65.5 °F 50.0 °F 57% 30.19 in 10.0 mi South 8.1 mph - N/A   Overcast